Time,TemperatureF,DewpointF,PressureIn,WindDirection,WindDirectionDegrees,WindSpeedMPH,WindSpeedGustMPH,Humidity,HourlyPrecipIn,Conditions,Clouds,dailyrainin,SoftwareType,DateUTC
2013-02-21 00:08:00,45.3,43.0,30.11,East,89,0.0,0.0,91,0.00,,,0.00,weatherlink.com 1.10,2013-02-21 05:08:00,
2013-02-21 00:23:00,44.9,43.0,30.11,East,89,0.0,0.0,91,0.00,,,0.00,weatherlink.com 1.10,2013-02-21 05:23:00,
2013-02-21 00:38:00,44.7,43.0,30.11,East,89,0.0,0.0,92,0.00,,,0.00,weatherlink.com 1.10,2013-02-21 05:38:00,
2013-02-21 00:53:00,44.3,42.0,30.11,East,89,0.0,0.0,92,0.00,,,0.00,weatherlink.com 1.10,2013-02-21 05:53:00,
2013-02-21 01:08:00,43.9,42.0,30.11,East,89,0.0,0.0,92,0.00,,,0.00,weatherlink.com 1.10,2013-02-21 06:08:00,
2013-02-21 01:23:00,43.3,41.0,30.11,East,89,0.0,0.0,92,0.00,,,0.00,weatherlink.com 1.10,2013-02-21 06:23:00,
2013-02-21 01:38:00,43.1,41.0,30.10,East,89,0.0,0.0,92,0.00,,,0.00,weatherlink.com 1.10,2013-02-21 06:38:00,
2013-02-21 01:53:00,43.2,41.0,30.10,East,89,0.0,0.0,93,0.00,,,0.00,weatherlink.com 1.10,2013-02-21 06:53:00,
2013-02-21 02:08:00,43.1,41.0,30.10,East,89,0.0,0.0,93,0.00,,,0.00,weatherlink.com 1.10,2013-02-21 07:08:00,
2013-02-21 02:23:00,43.0,41.0,30.10,East,89,0.0,0.0,93,0.00,,,0.00,weatherlink.com 1.10,2013-02-21 07:23:00,
2013-02-21 02:38:00,42.5,41.0,30.10,East,89,0.0,0.0,93,0.00,,,0.00,weatherlink.com 1.10,2013-02-21 07:38:00,
2013-02-21 02:54:00,42.2,40.0,30.09,East,89,0.0,0.0,93,0.00,,,0.00,weatherlink.com 1.10,2013-02-21 07:54:00,
2013-02-21 03:09:00,42.2,40.0,30.09,East,89,0.0,0.0,93,0.00,,,0.00,weatherlink.com 1.10,2013-02-21 08:09:00,
2013-02-21 03:24:00,42.0,40.0,30.09,East,89,0.0,0.0,93,0.00,,,0.00,weatherlink.com 1.10,2013-02-21 08:24:00,
2013-02-21 03:39:00,41.9,40.0,30.09,East,89,0.0,0.0,94,0.00,,,0.00,weatherlink.com 1.10,2013-02-21 08:39:00,
2013-02-21 03:54:00,42.1,41.0,30.08,East,89,0.0,0.0,94,0.00,,,0.00,weatherlink.com 1.10,2013-02-21 08:54:00,
2013-02-21 04:09:00,41.9,40.0,30.09,East,89,0.0,0.0,94,0.00,,,0.00,weatherlink.com 1.10,2013-02-21 09:09:00,
2013-02-21 04:24:00,41.3,40.0,30.09,East,89,0.0,0.0,94,0.00,,,0.00,weatherlink.com 1.10,2013-02-21 09:24:00,
2013-02-21 04:39:00,41.5,40.0,30.10,East,89,0.0,0.0,94,0.00,,,0.00,weatherlink.com 1.10,2013-02-21 09:39:00,
2013-02-21 04:54:00,40.8,39.0,30.10,East,89,0.0,0.0,94,0.00,,,0.00,weatherlink.com 1.10,2013-02-21 09:54:00,
2013-02-21 05:09:00,40.6,39.0,30.10,East,89,0.0,0.0,94,0.00,,,0.00,weatherlink.com 1.10,2013-02-21 10:09:00,
2013-02-21 05:24:00,40.7,39.0,30.10,East,89,0.0,0.0,94,0.00,,,0.00,weatherlink.com 1.10,2013-02-21 10:24:00,
2013-02-21 05:39:00,40.2,39.0,30.10,East,89,0.0,0.0,94,0.00,,,0.00,weatherlink.com 1.10,2013-02-21 10:39:00,
2013-02-21 05:54:00,40.0,39.0,30.10,East,89,0.0,0.0,94,0.00,,,0.00,weatherlink.com 1.10,2013-02-21 10:54:00,
2013-02-21 06:09:00,40.1,39.0,30.11,East,89,0.0,0.0,94,0.00,,,0.00,weatherlink.com 1.10,2013-02-21 11:09:00,
2013-02-21 06:24:00,39.8,38.0,30.10,East,89,0.0,0.0,94,0.00,,,0.00,weatherlink.com 1.10,2013-02-21 11:24:00,
2013-02-21 06:39:00,39.9,38.0,30.11,East,89,0.0,0.0,94,0.00,,,0.00,weatherlink.com 1.10,2013-02-21 11:39:00,
2013-02-21 06:54:00,39.9,39.0,30.11,East,89,0.0,1.0,95,0.00,,,0.00,weatherlink.com 1.10,2013-02-21 11:54:00,
2013-02-21 07:09:00,40.1,39.0,30.11,East,89,0.0,0.0,95,0.00,,,0.00,weatherlink.com 1.10,2013-02-21 12:09:00,
2013-02-21 07:24:00,41.1,40.0,30.12,East,89,0.0,0.0,95,0.00,,,0.00,weatherlink.com 1.10,2013-02-21 12:24:00,
2013-02-21 07:39:00,44.3,43.0,30.13,East,89,1.0,1.0,95,0.00,,,0.00,weatherlink.com 1.10,2013-02-21 12:39:00,
2013-02-21 07:54:00,47.8,47.0,30.15,East,89,1.0,5.0,95,0.00,,,0.00,weatherlink.com 1.10,2013-02-21 12:54:00,
2013-02-21 08:09:00,50.4,49.0,30.15,NNE,23,1.0,6.0,96,0.00,,,0.00,weatherlink.com 1.10,2013-02-21 13:09:00,
2013-02-21 08:24:00,53.0,52.0,30.15,NNE,23,3.0,3.0,95,0.00,,,0.00,weatherlink.com 1.10,2013-02-21 13:24:00,
2013-02-21 08:39:00,55.6,51.0,30.16,NNE,23,2.0,5.0,85,0.00,,,0.00,weatherlink.com 1.10,2013-02-21 13:39:00,
2013-02-21 08:54:00,59.1,52.0,30.16,NNE,24,1.0,4.0,77,0.00,,,0.00,weatherlink.com 1.10,2013-02-21 13:54:00,
2013-02-21 09:09:00,61.1,49.0,30.16,NE,38,4.0,9.0,65,0.00,,,0.00,weatherlink.com 1.10,2013-02-21 14:09:00,
2013-02-21 09:24:00,62.3,51.0,30.16,NE,42,0.0,5.0,67,0.00,,,0.00,weatherlink.com 1.10,2013-02-21 14:24:00,
2013-02-21 09:39:00,62.8,48.0,30.16,East,82,5.0,9.0,58,0.00,,,0.00,weatherlink.com 1.10,2013-02-21 14:39:00,
2013-02-21 09:54:00,65.0,49.0,30.16,NE,36,6.0,8.0,57,0.00,,,0.00,weatherlink.com 1.10,2013-02-21 14:54:00,
2013-02-21 10:10:00,65.5,49.0,30.17,ENE,69,5.0,8.0,56,0.00,,,0.00,weatherlink.com 1.10,2013-02-21 15:10:00,
2013-02-21 10:25:00,67.3,49.0,30.16,NNE,24,5.0,6.0,53,0.00,,,0.00,weatherlink.com 1.10,2013-02-21 15:25:00,
2013-02-21 10:40:00,66.4,49.0,30.16,East,88,6.0,8.0,53,0.00,,,0.00,weatherlink.com 1.10,2013-02-21 15:40:00,
2013-02-21 10:55:00,66.1,49.0,30.16,ENE,61,2.0,6.0,54,0.00,,,0.00,weatherlink.com 1.10,2013-02-21 15:55:00,
2013-02-21 11:10:00,66.4,51.0,30.16,East,90,0.0,8.0,57,0.00,,,0.00,weatherlink.com 1.10,2013-02-21 16:10:00,
2013-02-21 11:25:00,68.3,51.0,30.16,East,82,5.0,8.0,54,0.00,,,0.00,weatherlink.com 1.10,2013-02-21 16:25:00,
2013-02-21 11:40:00,67.9,50.0,30.15,East,82,3.0,8.0,53,0.00,,,0.00,weatherlink.com 1.10,2013-02-21 16:40:00,
2013-02-21 11:55:00,69.0,52.0,30.15,East,88,7.0,9.0,54,0.00,,,0.00,weatherlink.com 1.10,2013-02-21 16:55:00,
2013-02-21 12:10:00,69.8,52.0,30.15,ESE,103,3.0,6.0,54,0.00,,,0.00,weatherlink.com 1.10,2013-02-21 17:10:00,
2013-02-21 12:25:00,70.4,52.0,30.14,NE,56,4.0,7.0,52,0.00,,,0.00,weatherlink.com 1.10,2013-02-21 17:25:00,
2013-02-21 12:40:00,69.7,53.0,30.13,East,92,3.0,9.0,56,0.00,,,0.00,weatherlink.com 1.10,2013-02-21 17:40:00,
2013-02-21 12:55:00,69.4,52.0,30.12,East,90,6.0,9.0,54,0.00,,,0.00,weatherlink.com 1.10,2013-02-21 17:55:00,
2013-02-21 13:10:00,69.2,53.0,30.11,East,92,3.0,7.0,56,0.00,,,0.00,weatherlink.com 1.10,2013-02-21 18:10:00,
2013-02-21 13:25:00,70.3,53.0,30.11,East,82,2.0,9.0,54,0.00,,,0.00,weatherlink.com 1.10,2013-02-21 18:25:00,
2013-02-21 13:40:00,68.9,52.0,30.11,NE,54,0.0,10.0,55,0.00,,,0.00,weatherlink.com 1.10,2013-02-21 18:40:00,
2013-02-21 13:55:00,67.9,53.0,30.09,ENE,59,1.0,10.0,60,0.00,,,0.00,weatherlink.com 1.10,2013-02-21 18:55:00,
2013-02-21 14:10:00,66.8,51.0,30.09,East,85,3.0,10.0,58,0.00,,,0.00,weatherlink.com 1.10,2013-02-21 19:10:00,
2013-02-21 14:25:00,66.7,52.0,30.09,East,84,5.0,7.0,60,0.00,,,0.00,weatherlink.com 1.10,2013-02-21 19:25:00,
2013-02-21 14:40:00,66.1,53.0,30.08,ESE,117,3.0,9.0,62,0.00,,,0.00,weatherlink.com 1.10,2013-02-21 19:40:00,
2013-02-21 14:55:00,65.7,53.0,30.08,SE,143,6.0,10.0,64,0.00,,,0.00,weatherlink.com 1.10,2013-02-21 19:55:00,
2013-02-21 15:10:00,66.3,54.0,30.07,East,80,3.0,9.0,65,0.00,,,0.00,weatherlink.com 1.10,2013-02-21 20:10:00,
2013-02-21 15:25:00,66.0,53.0,30.07,East,81,3.0,10.0,63,0.00,,,0.00,weatherlink.com 1.10,2013-02-21 20:25:00,
2013-02-21 15:40:00,65.5,54.0,30.07,ENE,78,5.0,9.0,66,0.00,,,0.00,weatherlink.com 1.10,2013-02-21 20:40:00,
2013-02-21 15:55:00,65.1,53.0,30.07,SE,124,2.0,7.0,65,0.00,,,0.00,weatherlink.com 1.10,2013-02-21 20:55:00,
2013-02-21 16:10:00,65.4,54.0,30.07,ENE,58,1.0,7.0,66,0.00,,,0.00,weatherlink.com 1.10,2013-02-21 21:10:00,
2013-02-21 16:25:00,65.9,55.0,30.06,ESE,103,0.0,8.0,67,0.00,,,0.00,weatherlink.com 1.10,2013-02-21 21:25:00,
2013-02-21 16:40:00,65.6,54.0,30.06,NE,55,2.0,7.0,66,0.00,,,0.00,weatherlink.com 1.10,2013-02-21 21:40:00,
2013-02-21 16:55:00,65.1,54.0,30.06,East,97,7.0,10.0,67,0.00,,,0.00,weatherlink.com 1.10,2013-02-21 21:55:00,
2013-02-21 17:10:00,64.3,54.0,30.06,ENE,63,1.0,6.0,69,0.00,,,0.00,weatherlink.com 1.10,2013-02-21 22:10:00,
2013-02-21 17:25:00,63.8,54.0,30.07,NE,52,2.0,7.0,71,0.00,,,0.00,weatherlink.com 1.10,2013-02-21 22:25:00,
2013-02-21 17:40:00,63.2,55.0,30.06,East,81,0.0,7.0,74,0.00,,,0.00,weatherlink.com 1.10,2013-02-21 22:40:00,
2013-02-21 17:55:00,62.5,55.0,30.06,NE,45,0.0,5.0,76,0.00,,,0.00,weatherlink.com 1.10,2013-02-21 22:55:00,
2013-02-21 18:10:00,61.5,55.0,30.07,NE,49,3.0,4.0,78,0.00,,,0.00,weatherlink.com 1.10,2013-02-21 23:10:00,
2013-02-21 18:25:00,60.6,54.0,30.06,ENE,59,1.0,5.0,80,0.00,,,0.00,weatherlink.com 1.10,2013-02-21 23:25:00,
2013-02-21 18:40:00,59.7,54.0,30.06,ENE,61,0.0,3.0,82,0.00,,,0.00,weatherlink.com 1.10,2013-02-21 23:40:00,
2013-02-21 18:55:00,58.8,54.0,30.06,ENE,61,0.0,3.0,84,0.00,,,0.00,weatherlink.com 1.10,2013-02-21 23:55:00,
2013-02-21 19:10:00,58.3,54.0,30.06,ENE,61,0.0,2.0,86,0.00,,,0.00,weatherlink.com 1.10,2013-02-22 00:10:00,
2013-02-21 19:25:00,57.6,54.0,30.07,ENE,63,0.0,1.0,87,0.00,,,0.00,weatherlink.com 1.10,2013-02-22 00:25:00,
2013-02-21 19:40:00,57.5,54.0,30.07,ENE,63,0.0,2.0,88,0.00,,,0.00,weatherlink.com 1.10,2013-02-22 00:40:00,
2013-02-21 19:55:00,57.8,55.0,30.06,ENE,63,0.0,1.0,89,0.00,,,0.00,weatherlink.com 1.10,2013-02-22 00:55:00,
2013-02-21 20:10:00,57.7,55.0,30.06,ENE,63,0.0,0.0,90,0.00,,,0.00,weatherlink.com 1.10,2013-02-22 01:10:00,
2013-02-21 20:25:00,57.4,55.0,30.06,ENE,63,0.0,0.0,90,0.00,,,0.00,weatherlink.com 1.10,2013-02-22 01:25:00,
2013-02-21 20:40:00,57.1,54.0,30.06,ENE,63,0.0,0.0,90,0.00,,,0.00,weatherlink.com 1.10,2013-02-22 01:40:00,
2013-02-21 20:55:00,56.8,54.0,30.06,ENE,63,0.0,0.0,90,0.00,,,0.00,weatherlink.com 1.10,2013-02-22 01:55:00,
2013-02-21 21:10:00,56.7,54.0,30.06,ENE,63,0.0,0.0,91,0.00,,,0.00,weatherlink.com 1.10,2013-02-22 02:10:00,
2013-02-21 21:25:00,57.4,55.0,30.06,ENE,63,0.0,1.0,91,0.00,,,0.00,weatherlink.com 1.10,2013-02-22 02:25:00,
2013-02-21 21:40:00,57.3,55.0,30.06,ENE,63,0.0,0.0,91,0.00,,,0.00,weatherlink.com 1.10,2013-02-22 02:40:00,
2013-02-21 21:55:00,57.6,55.0,30.06,ENE,63,0.0,0.0,92,0.00,,,0.00,weatherlink.com 1.10,2013-02-22 02:55:00,
2013-02-21 22:10:00,57.6,55.0,30.07,ENE,63,0.0,0.0,91,0.00,,,0.00,weatherlink.com 1.10,2013-02-22 03:10:00,
2013-02-21 22:25:00,57.8,56.0,30.07,ENE,63,0.0,0.0,92,0.00,,,0.00,weatherlink.com 1.10,2013-02-22 03:25:00,
2013-02-21 22:40:00,57.9,56.0,30.07,ENE,63,0.0,0.0,92,0.00,,,0.00,weatherlink.com 1.10,2013-02-22 03:40:00,
2013-02-21 22:55:00,58.5,56.0,30.06,ENE,63,0.0,0.0,92,0.00,,,0.00,weatherlink.com 1.10,2013-02-22 03:55:00,
2013-02-21 23:10:00,59.3,57.0,30.06,ENE,63,0.0,1.0,92,0.00,,,0.00,weatherlink.com 1.10,2013-02-22 04:10:00,
2013-02-21 23:25:00,60.0,58.0,30.07,ENE,63,0.0,0.0,92,0.00,,,0.00,weatherlink.com 1.10,2013-02-22 04:25:00,
2013-02-21 23:40:00,60.9,59.0,30.07,ENE,63,0.0,0.0,92,0.00,,,0.00,weatherlink.com 1.10,2013-02-22 04:40:00,
2013-02-21 23:55:00,61.3,59.0,30.07,ENE,63,0.0,1.0,92,0.00,,,0.00,weatherlink.com 1.10,2013-02-22 04:55:00,